Location: Arpaise
(41.0333°N, 14.7333°E)
Time: 07:52:34
(UTC+00:00)

Cosmos 1328 - Pass Details

Date: 05 July 2020
Orbit: 538 x 546 km, 82.5° (Epoch: 05 August)

Event Time Altitude Azimuth Distance (km) Brightness Sun altitude
Exits shadow 20:01:44 13° 180° (S) 1,610 5.8 -13.3°
Maximum altitude 20:05:12 74° 96° (E) 569 3.7 -13.7°
Drops below altitude 10° 20:09:11 10° 12° (NNE) 1,812 7.0 -14.2°
Sets 20:11:20 0° 10° (N) 2,708 7.9 -14.5°
